Location: Brantley
(31.5822°N, 86.2569°W)
Time: 22:50:57
(UTC+00:00)

A-11 Canister half - Pass Details

Date: 23 February 2026
Orbit: 1525 x 1683 km, 47.3° (Epoch: 10 March)

Event Time Altitude Azimuth Distance (km) Brightness Sun altitude
Rises 01:41:45 0° 307° (NW) 4,681 12.4 -27.1°
Reaches altitude 10° 01:45:02 10° 314° (NW) 3,692 11.6 -27.8°
Maximum altitude 01:53:48 44° 24° (NNE) 2,017 9.4 -29.6°
Enters shadow 01:55:04 42° 44° (NE) 2,068 9.3 -29.9°
